Time,TemperatureF,DewpointF,PressureIn,WindDirection,WindDirectionDegrees,WindSpeedMPH,WindSpeedGustMPH,Humidity,HourlyPrecipIn,Conditions,Clouds,dailyrainin,SoftwareType,DateUTC
2013-08-22 00:05:00,68.4,67.5,30.02,WSW,247,0.0,11.0,97,0.00,,,0.00,Wunderground v.1.15,2013-08-22 04:05:00,
2013-08-22 00:10:00,68.4,67.5,30.02,WSW,247,0.0,11.0,97,0.00,,,0.00,Wunderground v.1.15,2013-08-22 04:10:00,
2013-08-22 00:15:00,68.4,67.5,30.02,WSW,247,0.0,11.0,97,0.00,,,0.00,Wunderground v.1.15,2013-08-22 04:15:00,
2013-08-22 00:20:00,68.4,67.5,30.02,WSW,247,0.0,11.0,97,0.00,,,0.00,Wunderground v.1.15,2013-08-22 04:20:00,
2013-08-22 00:25:00,68.3,67.4,30.02,WSW,247,0.0,11.0,97,0.00,,,0.00,Wunderground v.1.15,2013-08-22 04:25:00,
2013-08-22 00:35:00,68.5,67.9,30.02,WSW,247,0.0,11.0,98,0.00,,,0.00,Wunderground v.1.15,2013-08-22 04:35:00,
2013-08-22 00:40:00,68.7,68.1,30.02,WSW,247,0.0,11.0,98,0.00,,,0.00,Wunderground v.1.15,2013-08-22 04:40:00,
2013-08-22 00:45:00,68.8,68.2,30.02,WSW,247,0.0,11.0,98,0.00,,,0.00,Wunderground v.1.15,2013-08-22 04:45:00,
2013-08-22 00:50:00,68.8,68.2,30.02,WSW,247,0.0,11.0,98,0.00,,,0.00,Wunderground v.1.15,2013-08-22 04:50:00,
2013-08-22 00:55:00,68.8,68.2,30.01,WSW,247,0.0,11.0,98,0.00,,,0.00,Wunderground v.1.15,2013-08-22 04:55:00,
2013-08-22 01:05:00,68.7,68.1,30.01,WSW,247,0.0,11.0,98,0.00,,,0.00,Wunderground v.1.15,2013-08-22 05:05:00,
2013-08-22 01:15:00,68.5,67.9,30.01,WSW,247,0.0,11.0,98,0.00,,,0.00,Wunderground v.1.15,2013-08-22 05:15:00,
2013-08-22 01:20:00,68.5,67.9,30.01,WSW,247,0.0,11.0,98,0.00,,,0.00,Wunderground v.1.15,2013-08-22 05:20:00,
2013-08-22 01:25:00,68.5,67.9,30.01,WSW,247,0.0,11.0,98,0.00,,,0.00,Wunderground v.1.15,2013-08-22 05:25:00,
2013-08-22 01:30:00,68.5,67.9,30.00,WSW,247,0.0,11.0,98,0.00,,,0.00,Wunderground v.1.15,2013-08-22 05:30:00,
2013-08-22 01:35:00,68.4,67.8,30.01,WSW,247,0.0,11.0,98,0.00,,,0.00,Wunderground v.1.15,2013-08-22 05:35:00,
2013-08-22 01:45:00,68.5,67.9,30.01,WSW,247,0.0,11.0,98,0.00,,,0.00,Wunderground v.1.15,2013-08-22 05:45:00,
2013-08-22 01:50:00,68.4,67.8,30.01,WSW,247,0.0,11.0,98,0.00,,,0.00,Wunderground v.1.15,2013-08-22 05:50:00,
2013-08-22 01:55:00,68.3,67.7,30.02,WSW,247,0.0,11.0,98,0.00,,,0.00,Wunderground v.1.15,2013-08-22 05:55:00,
2013-08-22 02:05:00,68.3,67.7,30.02,WSW,247,0.0,11.0,98,0.00,,,0.00,Wunderground v.1.15,2013-08-22 06:05:00,
2013-08-22 02:10:00,68.4,67.8,30.02,WSW,247,0.0,11.0,98,0.00,,,0.00,Wunderground v.1.15,2013-08-22 06:10:00,
2013-08-22 02:15:00,68.5,68.2,30.01,WSW,247,0.0,11.0,99,0.00,,,0.00,Wunderground v.1.15,2013-08-22 06:15:00,
2013-08-22 02:25:00,68.6,68.3,30.01,WSW,247,0.0,11.0,99,0.00,,,0.00,Wunderground v.1.15,2013-08-22 06:25:00,
2013-08-22 02:30:00,68.7,68.4,30.01,WSW,247,0.0,11.0,99,0.00,,,0.00,Wunderground v.1.15,2013-08-22 06:30:00,
2013-08-22 02:35:00,68.7,68.4,30.01,WSW,247,0.0,11.0,99,0.00,,,0.00,Wunderground v.1.15,2013-08-22 06:35:00,
2013-08-22 02:40:00,68.8,68.5,30.01,WSW,247,0.0,11.0,99,0.00,,,0.00,Wunderground v.1.15,2013-08-22 06:40:00,
2013-08-22 02:50:00,68.9,68.3,30.01,WSW,247,0.0,11.0,98,0.00,,,0.00,Wunderground v.1.15,2013-08-22 06:50:00,
2013-08-22 02:55:00,68.9,68.3,30.01,WSW,247,0.0,11.0,98,0.00,,,0.00,Wunderground v.1.15,2013-08-22 06:55:00,
2013-08-22 03:00:00,68.9,68.3,30.01,WSW,247,0.0,11.0,98,0.00,,,0.00,Wunderground v.1.15,2013-08-22 07:00:00,
2013-08-22 03:05:00,68.8,68.2,30.01,WSW,247,0.0,11.0,98,0.00,,,0.00,Wunderground v.1.15,2013-08-22 07:05:00,
2013-08-22 03:10:00,68.8,68.2,30.01,WSW,247,0.0,11.0,98,0.00,,,0.00,Wunderground v.1.15,2013-08-22 07:10:00,
2013-08-22 03:15:00,68.7,68.1,30.01,WSW,247,0.0,11.0,98,0.00,,,0.00,Wunderground v.1.15,2013-08-22 07:15:00,
2013-08-22 03:25:00,68.6,68.0,30.02,WSW,247,0.0,11.0,98,0.00,,,0.00,Wunderground v.1.15,2013-08-22 07:25:00,
2013-08-22 03:30:00,68.6,68.0,30.01,WSW,247,0.0,11.0,98,0.00,,,0.00,Wunderground v.1.15,2013-08-22 07:30:00,
2013-08-22 03:40:00,68.8,68.5,30.01,WSW,247,0.0,11.0,99,0.00,,,0.00,Wunderground v.1.15,2013-08-22 07:40:00,
2013-08-22 03:45:00,68.8,68.5,30.01,WSW,247,0.0,11.0,99,0.00,,,0.00,Wunderground v.1.15,2013-08-22 07:45:00,
2013-08-22 03:50:00,68.9,68.6,30.02,WSW,247,0.0,11.0,99,0.00,,,0.00,Wunderground v.1.15,2013-08-22 07:50:00,
2013-08-22 04:00:00,68.6,68.0,30.02,WSW,247,0.0,11.0,98,0.00,,,0.00,Wunderground v.1.15,2013-08-22 08:00:00,
2013-08-22 04:05:00,68.6,68.0,30.02,WSW,247,0.0,11.0,98,0.00,,,0.00,Wunderground v.1.15,2013-08-22 08:05:00,
2013-08-22 04:10:00,68.6,68.0,30.02,WSW,247,0.0,11.0,98,0.00,,,0.00,Wunderground v.1.15,2013-08-22 08:10:00,
2013-08-22 04:15:00,68.6,68.0,30.02,WSW,247,0.0,11.0,98,0.00,,,0.00,Wunderground v.1.15,2013-08-22 08:15:00,
2013-08-22 04:20:00,68.6,68.3,30.02,WSW,247,0.0,11.0,99,0.00,,,0.00,Wunderground v.1.15,2013-08-22 08:20:00,
2013-08-22 04:30:00,68.5,68.2,30.03,WSW,247,0.0,11.0,99,0.00,,,0.00,Wunderground v.1.15,2013-08-22 08:30:00,
2013-08-22 04:35:00,68.5,67.9,30.03,WSW,247,0.0,11.0,98,0.00,,,0.00,Wunderground v.1.15,2013-08-22 08:35:00,
2013-08-22 04:45:00,68.4,67.8,30.03,WSW,247,0.0,11.0,98,0.00,,,0.00,Wunderground v.1.15,2013-08-22 08:45:00,
2013-08-22 04:50:00,68.5,67.9,30.02,WSW,247,0.0,11.0,98,0.00,,,0.00,Wunderground v.1.15,2013-08-22 08:50:00,
2013-08-22 04:55:00,68.5,68.2,30.02,WSW,247,0.0,11.0,99,0.00,,,0.00,Wunderground v.1.15,2013-08-22 08:55:00,
2013-08-22 05:05:00,68.5,68.2,30.03,WSW,247,0.0,11.0,99,0.00,,,0.00,Wunderground v.1.15,2013-08-22 09:05:00,
2013-08-22 05:10:00,68.5,68.2,30.02,WSW,247,0.0,11.0,99,0.00,,,0.00,Wunderground v.1.15,2013-08-22 09:10:00,
2013-08-22 05:15:00,68.4,68.1,30.02,WSW,247,0.0,11.0,99,0.00,,,0.00,Wunderground v.1.15,2013-08-22 09:15:00,
2013-08-22 05:20:00,68.3,68.0,30.02,WSW,247,0.0,11.0,99,0.00,,,0.00,Wunderground v.1.15,2013-08-22 09:20:00,
2013-08-22 05:25:00,68.3,68.0,30.01,WSW,247,0.0,11.0,99,0.00,,,0.00,Wunderground v.1.15,2013-08-22 09:25:00,
2013-08-22 05:30:00,68.3,68.0,30.01,WSW,247,0.0,11.0,99,0.00,,,0.00,Wunderground v.1.15,2013-08-22 09:30:00,
2013-08-22 05:35:00,68.3,68.0,30.02,WSW,247,0.0,11.0,99,0.00,,,0.00,Wunderground v.1.15,2013-08-22 09:35:00,
2013-08-22 05:40:00,68.3,68.0,30.01,WSW,247,0.0,11.0,99,0.00,,,0.00,Wunderground v.1.15,2013-08-22 09:40:00,
2013-08-22 05:45:00,68.3,68.0,30.02,WSW,247,0.0,11.0,99,0.00,,,0.00,Wunderground v.1.15,2013-08-22 09:45:00,
2013-08-22 05:50:00,68.3,68.0,30.02,WSW,247,0.0,11.0,99,0.00,,,0.00,Wunderground v.1.15,2013-08-22 09:50:00,
2013-08-22 05:55:00,68.3,68.0,30.02,WSW,247,0.0,11.0,99,0.00,,,0.00,Wunderground v.1.15,2013-08-22 09:55:00,
2013-08-22 06:00:00,68.2,67.9,30.03,WSW,247,0.0,0.0,99,0.00,,,0.00,Wunderground v.1.15,2013-08-22 10:00:00,
2013-08-22 06:10:00,68.2,67.9,30.03,WSW,247,0.0,0.0,99,0.00,,,0.01,Wunderground v.1.15,2013-08-22 10:10:00,
2013-08-22 06:20:00,68.1,67.8,30.03,WSW,247,0.0,0.0,99,0.00,,,0.01,Wunderground v.1.15,2013-08-22 10:20:00,
2013-08-22 06:25:00,68.0,67.7,30.03,WSW,247,0.0,0.0,99,0.00,,,0.01,Wunderground v.1.15,2013-08-22 10:25:00,
2013-08-22 06:30:00,67.7,67.1,30.03,WSW,247,0.0,0.0,98,0.00,,,0.01,Wunderground v.1.15,2013-08-22 10:30:00,
2013-08-22 06:35:00,67.6,67.3,30.02,WSW,247,0.0,0.0,99,0.00,,,0.01,Wunderground v.1.15,2013-08-22 10:35:00,
2013-08-22 06:45:00,67.4,67.1,30.03,WSW,247,0.0,0.0,99,0.00,,,0.01,Wunderground v.1.15,2013-08-22 10:45:00,
2013-08-22 06:50:00,67.3,67.0,30.03,WSW,247,0.0,0.0,99,0.00,,,0.01,Wunderground v.1.15,2013-08-22 10:50:00,
2013-08-22 08:30:00,68.1,68.1,30.02,WSW,247,0.0,0.0,100,0.00,,,0.01,Wunderground v.1.15,2013-08-22 12:30:00,
2013-08-22 08:35:00,68.2,68.2,30.02,WSW,247,0.0,0.0,100,0.00,,,0.01,Wunderground v.1.15,2013-08-22 12:35:00,
2013-08-22 08:40:00,68.3,68.3,30.02,WSW,247,0.0,0.0,100,0.00,,,0.01,Wunderground v.1.15,2013-08-22 12:40:00,
2013-08-22 08:45:00,68.4,68.1,30.03,WSW,247,0.0,0.0,99,0.00,,,0.01,Wunderground v.1.15,2013-08-22 12:45:00,
2013-08-22 08:50:00,68.4,68.1,30.03,WSW,247,0.0,0.0,99,0.00,,,0.01,Wunderground v.1.15,2013-08-22 12:50:00,
2013-08-22 08:55:00,68.5,68.2,30.03,WSW,247,0.0,0.0,99,0.00,,,0.01,Wunderground v.1.15,2013-08-22 12:55:00,
2013-08-22 09:05:00,68.5,68.2,30.03,WSW,247,0.0,0.0,99,0.00,,,0.01,Wunderground v.1.15,2013-08-22 13:05:00,
2013-08-22 09:10:00,68.6,68.3,30.03,WSW,247,0.0,0.0,99,0.00,,,0.01,Wunderground v.1.15,2013-08-22 13:10:00,
2013-08-22 09:15:00,68.6,68.3,30.02,WSW,247,0.0,0.0,99,0.00,,,0.01,Wunderground v.1.15,2013-08-22 13:15:00,
2013-08-22 09:25:00,68.8,68.5,30.03,SSW,192,0.0,1.0,99,0.00,,,0.01,Wunderground v.1.15,2013-08-22 13:25:00,
2013-08-22 09:30:00,68.8,68.5,30.03,SSW,192,1.0,2.0,99,0.00,,,0.01,Wunderground v.1.15,2013-08-22 13:30:00,
2013-08-22 09:35:00,68.9,68.6,30.03,SSW,192,1.0,2.0,99,0.00,,,0.01,Wunderground v.1.15,2013-08-22 13:35:00,
2013-08-22 09:40:00,69.0,68.7,30.04,SSW,192,0.0,0.0,99,0.00,,,0.01,Wunderground v.1.15,2013-08-22 13:40:00,
2013-08-22 09:45:00,69.1,68.5,30.04,SSW,192,0.0,0.0,98,0.00,,,0.01,Wunderground v.1.15,2013-08-22 13:45:00,
2013-08-22 09:55:00,69.3,68.7,30.04,SSW,192,0.0,0.0,98,0.00,,,0.01,Wunderground v.1.15,2013-08-22 13:55:00,
2013-08-22 10:00:00,69.4,69.1,30.04,SSW,192,0.0,0.0,99,0.00,,,0.01,Wunderground v.1.15,2013-08-22 14:00:00,
2013-08-22 10:10:00,69.7,69.1,30.04,SSW,192,0.0,0.0,98,0.00,,,0.01,Wunderground v.1.15,2013-08-22 14:10:00,
2013-08-22 10:15:00,69.9,69.6,30.04,SSW,192,0.0,0.0,99,0.00,,,0.01,Wunderground v.1.15,2013-08-22 14:15:00,
2013-08-22 10:20:00,70.1,69.5,30.03,SSW,192,0.0,0.0,98,0.00,,,0.01,Wunderground v.1.15,2013-08-22 14:20:00,
2013-08-22 10:30:00,70.6,69.7,30.04,WNW,283,0.0,3.0,97,0.00,,,0.01,Wunderground v.1.15,2013-08-22 14:30:00,
2013-08-22 10:35:00,70.9,69.7,30.04,WNW,284,1.0,3.0,96,0.00,,,0.01,Wunderground v.1.15,2013-08-22 14:35:00,
2013-08-22 10:40:00,71.1,69.9,30.04,West,262,1.0,2.0,96,0.00,,,0.01,Wunderground v.1.15,2013-08-22 14:40:00,
2013-08-22 10:45:00,71.3,69.8,30.04,WNW,296,1.0,2.0,95,0.00,,,0.01,Wunderground v.1.15,2013-08-22 14:45:00,
2013-08-22 10:55:00,72.0,70.2,30.04,West,279,1.0,1.0,94,0.00,,,0.01,Wunderground v.1.15,2013-08-22 14:55:00,
2013-08-22 11:05:00,72.8,70.7,30.04,SW,224,1.0,1.0,93,0.00,,,0.01,Wunderground v.1.15,2013-08-22 15:05:00,
2013-08-22 11:10:00,73.3,70.2,30.04,West,264,2.0,2.0,90,0.00,,,0.01,Wunderground v.1.15,2013-08-22 15:10:00,
2013-08-22 11:15:00,73.9,70.8,30.05,West,265,2.0,2.0,90,0.00,,,0.01,Wunderground v.1.15,2013-08-22 15:15:00,